Year,Month,Day,Hour,Minute,Value (Times are PST for temperature in C)
2013,07,13,00,00,11.10
2013,07,13,00,01,11.10
2013,07,13,00,02,11.10
2013,07,13,00,03,11.10
2013,07,13,00,04,11.10
2013,07,13,00,05,11.10
2013,07,13,00,06,11.10
2013,07,13,00,07,11.10
2013,07,13,00,08,11.10
2013,07,13,00,09,11.00
2013,07,13,00,10,11.00
2013,07,13,00,11,11.00
2013,07,13,00,12,11.00
2013,07,13,00,13,10.90
2013,07,13,00,14,10.90
2013,07,13,00,15,10.90
2013,07,13,00,16,10.90
2013,07,13,00,17,10.90
2013,07,13,00,18,10.90
2013,07,13,00,19,10.90
2013,07,13,00,20,10.90
2013,07,13,00,21,10.90
2013,07,13,00,22,10.90
2013,07,13,00,23,10.90
2013,07,13,00,24,10.90
2013,07,13,00,25,10.80
2013,07,13,00,26,10.80
2013,07,13,00,27,10.80
2013,07,13,00,28,10.80
2013,07,13,00,29,10.80
2013,07,13,00,30,10.80
2013,07,13,00,31,10.80
2013,07,13,00,32,10.80
2013,07,13,00,33,10.80
2013,07,13,00,34,10.80
2013,07,13,00,35,10.80
2013,07,13,00,36,10.80
2013,07,13,00,37,10.80
2013,07,13,00,38,10.80
2013,07,13,00,39,10.80
2013,07,13,00,40,10.80
2013,07,13,00,41,10.80
2013,07,13,00,42,10.70
2013,07,13,00,43,10.70
2013,07,13,00,44,10.70
2013,07,13,00,45,10.70
2013,07,13,00,46,10.60
2013,07,13,00,47,10.60
2013,07,13,00,48,10.60
2013,07,13,00,49,10.60
2013,07,13,00,50,10.60
2013,07,13,00,51,10.60
2013,07,13,00,52,10.60
2013,07,13,00,53,10.60
2013,07,13,00,54,10.50
2013,07,13,00,55,10.40
2013,07,13,00,56,10.40
2013,07,13,00,57,10.40
2013,07,13,00,58,10.40
2013,07,13,00,59,10.40
2013,07,13,01,00,10.40
2013,07,13,01,01,10.40
2013,07,13,01,02,10.30
2013,07,13,01,03,10.30
2013,07,13,01,04,10.30
2013,07,13,01,05,10.30
2013,07,13,01,06,10.30
2013,07,13,01,07,10.40
2013,07,13,01,08,10.40
2013,07,13,01,09,10.40
2013,07,13,01,10,10.30
2013,07,13,01,11,10.30
2013,07,13,01,12,10.30
2013,07,13,01,13,10.30
2013,07,13,01,14,10.30
2013,07,13,01,15,10.30
2013,07,13,01,16,10.30
2013,07,13,01,17,10.30
2013,07,13,01,18,10.30
2013,07,13,01,19,10.20
2013,07,13,01,20,10.20
2013,07,13,01,21,10.20
2013,07,13,01,22,10.20
2013,07,13,01,23,10.20
2013,07,13,01,24,10.20
2013,07,13,01,25,10.20
2013,07,13,01,26,10.20
2013,07,13,01,27,10.20
2013,07,13,01,28,10.20
2013,07,13,01,29,10.20
2013,07,13,01,30,10.20
2013,07,13,01,31,10.20
2013,07,13,01,32,10.20
2013,07,13,01,33,10.20
2013,07,13,01,34,10.20
2013,07,13,01,35,10.20
2013,07,13,01,36,10.20
2013,07,13,01,37,10.20
2013,07,13,01,38,10.20
2013,07,13,01,39,10.20
2013,07,13,01,40,10.20
2013,07,13,01,41,10.20
2013,07,13,01,42,10.20
2013,07,13,01,43,10.20
2013,07,13,01,44,10.20
2013,07,13,01,45,10.20
2013,07,13,01,46,10.20
2013,07,13,01,47,10.20
2013,07,13,01,48,10.20
2013,07,13,01,49,10.20
2013,07,13,01,50,10.20
2013,07,13,01,51,10.20
2013,07,13,01,52,10.20
2013,07,13,01,53,10.20
2013,07,13,01,54,10.20
2013,07,13,01,55,10.20
2013,07,13,01,56,10.20
2013,07,13,01,57,10.20
2013,07,13,01,58,10.20
2013,07,13,01,59,10.20
2013,07,13,02,00,10.20
2013,07,13,02,01,10.20
2013,07,13,02,02,10.20
2013,07,13,02,03,10.20
2013,07,13,02,04,10.20
2013,07,13,02,05,10.20
2013,07,13,02,06,10.20
2013,07,13,02,07,10.20
2013,07,13,02,08,10.20
2013,07,13,02,09,10.20
2013,07,13,02,10,10.20
2013,07,13,02,11,10.20
2013,07,13,02,12,10.20
2013,07,13,02,13,10.10
2013,07,13,02,14,10.10
2013,07,13,02,15,10.10
2013,07,13,02,16,10.10
2013,07,13,02,17,10.10
2013,07,13,02,18,10.10
2013,07,13,02,19,10.00
2013,07,13,02,20,10.00
2013,07,13,02,21,9.90
2013,07,13,02,22,9.90
2013,07,13,02,23,9.90
2013,07,13,02,24,9.90
2013,07,13,02,25,9.80
2013,07,13,02,26,9.80
2013,07,13,02,27,9.80
2013,07,13,02,28,9.80
2013,07,13,02,29,9.80
2013,07,13,02,30,9.70
2013,07,13,02,31,9.70
2013,07,13,02,32,9.70
2013,07,13,02,33,9.80
2013,07,13,02,34,9.80
2013,07,13,02,35,9.80
2013,07,13,02,36,9.80
2013,07,13,02,37,9.80
2013,07,13,02,38,9.80
2013,07,13,02,39,9.80
2013,07,13,02,40,9.80
2013,07,13,02,41,9.80
2013,07,13,02,42,9.80
2013,07,13,02,43,9.80
2013,07,13,02,44,9.80
2013,07,13,02,45,9.80
2013,07,13,02,46,9.90
2013,07,13,02,47,9.80
2013,07,13,02,48,9.90
2013,07,13,02,49,9.90
2013,07,13,02,50,9.90
2013,07,13,02,51,9.90
2013,07,13,02,52,9.90
2013,07,13,02,53,9.90
2013,07,13,02,54,9.90
2013,07,13,02,55,9.90
2013,07,13,02,56,9.90
2013,07,13,02,57,9.90
2013,07,13,02,58,9.90
2013,07,13,02,59,9.90
2013,07,13,03,00,9.90
2013,07,13,03,01,9.90
2013,07,13,03,02,9.90
2013,07,13,03,03,9.80
2013,07,13,03,04,9.80
2013,07,13,03,05,9.80
2013,07,13,03,06,9.80
2013,07,13,03,07,9.80
2013,07,13,03,08,9.80
2013,07,13,03,09,9.80
2013,07,13,03,10,9.70
2013,07,13,03,11,9.70
2013,07,13,03,12,9.70
2013,07,13,03,13,9.70
2013,07,13,03,14,9.70
2013,07,13,03,15,9.70
2013,07,13,03,16,9.80
2013,07,13,03,17,9.70
2013,07,13,03,18,9.70
2013,07,13,03,19,9.70
2013,07,13,03,20,9.70
2013,07,13,03,21,9.70
2013,07,13,03,22,9.70
2013,07,13,03,23,9.70
2013,07,13,03,24,9.70
2013,07,13,03,25,9.80
2013,07,13,03,26,9.80
2013,07,13,03,27,9.80
2013,07,13,03,28,9.80
2013,07,13,03,29,9.80
2013,07,13,03,30,9.80
2013,07,13,03,31,9.80
2013,07,13,03,32,9.80
2013,07,13,03,33,9.80
2013,07,13,03,34,9.80
2013,07,13,03,35,9.80
2013,07,13,03,36,9.70
2013,07,13,03,37,9.70
2013,07,13,03,38,9.70
2013,07,13,03,39,9.70
2013,07,13,03,40,9.70
2013,07,13,03,41,9.70
2013,07,13,03,42,9.70
2013,07,13,03,43,9.60
2013,07,13,03,44,9.60
2013,07,13,03,45,9.60
2013,07,13,03,46,9.60
2013,07,13,03,47,9.60
2013,07,13,03,48,9.60
2013,07,13,03,49,9.60
2013,07,13,03,50,9.60
2013,07,13,03,51,9.60
2013,07,13,03,52,9.60
2013,07,13,03,53,9.60
2013,07,13,03,54,9.60
2013,07,13,03,55,9.60
2013,07,13,03,56,9.60
2013,07,13,03,57,9.60
2013,07,13,03,58,9.60
2013,07,13,03,59,9.60
2013,07,13,04,00,9.60
2013,07,13,04,01,9.60
2013,07,13,04,02,9.50
2013,07,13,04,03,9.50
2013,07,13,04,04,9.40
2013,07,13,04,05,9.40
2013,07,13,04,06,9.40
2013,07,13,04,07,9.40
2013,07,13,04,08,9.40
2013,07,13,04,09,9.30
2013,07,13,04,10,9.30
2013,07,13,04,11,9.30
2013,07,13,04,12,9.30
2013,07,13,04,13,9.30
2013,07,13,04,14,9.30
2013,07,13,04,15,9.20
2013,07,13,04,16,9.20
2013,07,13,04,17,9.20
2013,07,13,04,18,9.20
2013,07,13,04,19,9.20
2013,07,13,04,20,9.20
2013,07,13,04,21,9.20
2013,07,13,04,22,9.20
2013,07,13,04,23,9.30
2013,07,13,04,24,9.30
2013,07,13,04,25,9.30
2013,07,13,04,26,9.20
2013,07,13,04,27,9.30
2013,07,13,04,28,9.20
2013,07,13,04,29,9.20
2013,07,13,04,30,9.20
2013,07,13,04,31,9.20
2013,07,13,04,32,9.20
2013,07,13,04,33,9.20
2013,07,13,04,34,9.20
2013,07,13,04,35,9.20
2013,07,13,04,36,9.10
2013,07,13,04,37,9.10
2013,07,13,04,38,9.10
2013,07,13,04,39,9.10
2013,07,13,04,40,9.10
2013,07,13,04,41,9.00
2013,07,13,04,42,9.00
2013,07,13,04,43,9.00
2013,07,13,04,44,8.90
2013,07,13,04,45,8.90
2013,07,13,04,46,8.90
2013,07,13,04,47,8.90
2013,07,13,04,48,9.00
2013,07,13,04,49,8.90
2013,07,13,04,50,8.90
2013,07,13,04,51,8.90
2013,07,13,04,52,8.90
2013,07,13,04,53,8.90
2013,07,13,04,54,8.90
2013,07,13,04,55,8.90
2013,07,13,04,56,8.90
2013,07,13,04,57,8.90
2013,07,13,04,58,8.90
2013,07,13,04,59,8.80
2013,07,13,05,00,8.80
2013,07,13,05,01,8.80
2013,07,13,05,02,8.90
2013,07,13,05,03,8.90
2013,07,13,05,04,8.90
2013,07,13,05,05,8.90
2013,07,13,05,06,8.90
2013,07,13,05,07,8.90
2013,07,13,05,08,8.90
2013,07,13,05,09,8.90
2013,07,13,05,10,8.90
2013,07,13,05,11,8.90
2013,07,13,05,12,8.90
2013,07,13,05,13,8.90
2013,07,13,05,14,8.90
2013,07,13,05,15,8.90
2013,07,13,05,16,8.90
2013,07,13,05,17,8.90
2013,07,13,05,18,8.90
2013,07,13,05,19,8.90
2013,07,13,05,20,8.90
2013,07,13,05,21,8.90
2013,07,13,05,22,8.90
2013,07,13,05,23,8.90
2013,07,13,05,24,8.90
2013,07,13,05,25,8.90
2013,07,13,05,26,8.90
2013,07,13,05,27,8.90
2013,07,13,05,28,8.90
2013,07,13,05,29,8.90
2013,07,13,05,30,8.90
2013,07,13,05,31,8.90
2013,07,13,05,32,8.90
2013,07,13,05,33,8.90
2013,07,13,05,34,8.90
2013,07,13,05,35,8.80
2013,07,13,05,36,8.80
2013,07,13,05,37,8.80
2013,07,13,05,38,8.80
2013,07,13,05,39,8.80
2013,07,13,05,40,8.80
2013,07,13,05,41,8.80
2013,07,13,05,42,8.70
2013,07,13,05,43,8.70
2013,07,13,05,44,8.70
2013,07,13,05,45,8.70
2013,07,13,05,46,8.70
2013,07,13,05,47,8.70
2013,07,13,05,48,8.70
2013,07,13,05,49,8.70
2013,07,13,05,50,8.60
2013,07,13,05,51,8.60
2013,07,13,05,52,8.60
2013,07,13,05,53,8.60
2013,07,13,05,54,8.60
2013,07,13,05,55,8.70
2013,07,13,05,56,8.70
2013,07,13,05,57,8.70
2013,07,13,05,58,8.70
2013,07,13,05,59,8.70
2013,07,13,06,00,8.70
2013,07,13,06,01,8.80
2013,07,13,06,02,8.80
2013,07,13,06,03,8.80
2013,07,13,06,04,8.80
2013,07,13,06,05,8.80
2013,07,13,06,06,8.80
2013,07,13,06,07,8.80
2013,07,13,06,08,8.80
2013,07,13,06,09,8.80
2013,07,13,06,10,8.80
2013,07,13,06,11,8.80
2013,07,13,06,12,8.80
2013,07,13,06,13,8.80
2013,07,13,06,14,8.80
2013,07,13,06,15,8.80
2013,07,13,06,16,8.80
2013,07,13,06,17,8.80
2013,07,13,06,18,8.80
2013,07,13,06,19,8.80
2013,07,13,06,20,8.80
2013,07,13,06,21,8.80
2013,07,13,06,22,8.80
2013,07,13,06,23,8.80
2013,07,13,06,24,8.80
2013,07,13,06,25,8.80
2013,07,13,06,26,8.80
2013,07,13,06,27,8.80
2013,07,13,06,28,8.80
2013,07,13,06,29,8.90
2013,07,13,06,30,8.90
2013,07,13,06,31,8.90
2013,07,13,06,32,8.90
2013,07,13,06,33,8.90
2013,07,13,06,34,8.90
2013,07,13,06,35,8.90
2013,07,13,06,36,8.90
2013,07,13,06,37,8.90
2013,07,13,06,38,8.90
2013,07,13,06,39,8.90
2013,07,13,06,40,8.90
2013,07,13,06,41,8.90
2013,07,13,06,42,8.90
2013,07,13,06,43,8.90
2013,07,13,06,44,8.90
2013,07,13,06,45,8.90
2013,07,13,06,46,8.90
2013,07,13,06,47,8.90
2013,07,13,06,48,8.90
2013,07,13,06,49,8.90
2013,07,13,06,50,8.80
2013,07,13,06,51,8.80
2013,07,13,06,52,8.80
2013,07,13,06,53,8.80
2013,07,13,06,54,8.80
2013,07,13,06,55,8.80
2013,07,13,06,56,8.80
2013,07,13,06,57,8.80
2013,07,13,06,58,8.80
2013,07,13,06,59,8.80
2013,07,13,07,00,8.80
2013,07,13,07,01,8.80
2013,07,13,07,02,8.80
2013,07,13,07,03,8.80
2013,07,13,07,04,8.80
2013,07,13,07,05,8.80
2013,07,13,07,06,8.80
2013,07,13,07,07,8.80
2013,07,13,07,08,8.90
2013,07,13,07,09,8.90
2013,07,13,07,10,8.90
2013,07,13,07,11,9.00
2013,07,13,07,12,9.00
2013,07,13,07,13,9.10
2013,07,13,07,14,9.10
2013,07,13,07,15,9.10
2013,07,13,07,16,9.20
2013,07,13,07,17,9.20
2013,07,13,07,18,9.20
2013,07,13,07,19,9.20
2013,07,13,07,20,9.30
2013,07,13,07,21,9.30
2013,07,13,07,22,9.30
2013,07,13,07,23,9.30
2013,07,13,07,24,9.30
2013,07,13,07,25,9.40
2013,07,13,07,26,9.40
2013,07,13,07,27,9.50
2013,07,13,07,28,9.50
2013,07,13,07,29,9.50
2013,07,13,07,30,9.60
2013,07,13,07,31,9.60
2013,07,13,07,32,9.70
2013,07,13,07,33,9.70
2013,07,13,07,34,9.80
2013,07,13,07,35,9.80
2013,07,13,07,36,9.90
2013,07,13,07,37,9.90
2013,07,13,07,38,10.00
2013,07,13,07,39,10.00
2013,07,13,07,40,10.10
2013,07,13,07,41,10.10
2013,07,13,07,42,10.20
2013,07,13,07,43,10.20
2013,07,13,07,44,10.30
2013,07,13,07,45,10.30
2013,07,13,07,46,10.30
2013,07,13,07,47,10.40
2013,07,13,07,48,10.40
2013,07,13,07,49,10.40
2013,07,13,07,50,10.50
2013,07,13,07,51,10.50
2013,07,13,07,52,10.60
2013,07,13,07,53,10.60
2013,07,13,07,54,10.70
2013,07,13,07,55,10.70
2013,07,13,07,56,10.70
2013,07,13,07,57,10.80
2013,07,13,07,58,10.80
2013,07,13,07,59,10.80
2013,07,13,08,00,10.90
2013,07,13,08,01,11.00
2013,07,13,08,02,11.10
2013,07,13,08,03,11.20
2013,07,13,08,04,11.20
2013,07,13,08,05,11.30
2013,07,13,08,06,11.40
2013,07,13,08,07,11.50
2013,07,13,08,08,11.50
2013,07,13,08,09,11.60
2013,07,13,08,10,11.70
2013,07,13,08,11,11.80
2013,07,13,08,12,11.90
2013,07,13,08,13,12.00
2013,07,13,08,14,12.10
2013,07,13,08,15,12.20
2013,07,13,08,16,12.20
2013,07,13,08,17,12.30
2013,07,13,08,18,12.30
2013,07,13,08,19,12.30
2013,07,13,08,20,12.40
2013,07,13,08,21,12.40
2013,07,13,08,22,12.50
2013,07,13,08,23,12.60
2013,07,13,08,24,12.60
2013,07,13,08,25,12.70
2013,07,13,08,26,12.70
2013,07,13,08,27,12.70
2013,07,13,08,28,12.80
2013,07,13,08,29,12.80
2013,07,13,08,30,12.90
2013,07,13,08,31,12.90
2013,07,13,08,32,13.00
2013,07,13,08,33,13.10
2013,07,13,08,34,13.10
2013,07,13,08,35,13.20
2013,07,13,08,36,13.20
2013,07,13,08,37,13.20
2013,07,13,08,38,13.20
2013,07,13,08,39,13.20
2013,07,13,08,40,13.20
2013,07,13,08,41,13.30
2013,07,13,08,42,13.30
2013,07,13,08,43,13.30
2013,07,13,08,44,13.40
2013,07,13,08,45,13.50
2013,07,13,08,46,13.50
2013,07,13,08,47,13.60
2013,07,13,08,48,13.60
2013,07,13,08,49,13.70
2013,07,13,08,50,13.70
2013,07,13,08,51,13.70
2013,07,13,08,52,13.70
2013,07,13,08,53,13.70
2013,07,13,08,54,13.70
2013,07,13,08,55,13.70
2013,07,13,08,56,13.70
2013,07,13,08,57,13.70
2013,07,13,08,58,13.70
2013,07,13,08,59,13.80
2013,07,13,09,00,13.90
2013,07,13,09,01,14.00
2013,07,13,09,02,14.10
2013,07,13,09,03,14.20
2013,07,13,09,04,14.30
2013,07,13,09,05,14.30
2013,07,13,09,06,14.40
2013,07,13,09,07,14.50
2013,07,13,09,08,14.60
2013,07,13,09,09,14.60
2013,07,13,09,10,14.70
2013,07,13,09,11,14.80
2013,07,13,09,12,14.80
2013,07,13,09,13,14.90
2013,07,13,09,14,15.00
2013,07,13,09,15,15.00
2013,07,13,09,16,15.00
2013,07,13,09,17,15.00
2013,07,13,09,18,15.00
2013,07,13,09,19,15.10
2013,07,13,09,20,15.20
2013,07,13,09,21,15.30
2013,07,13,09,22,15.30
2013,07,13,09,23,15.30
2013,07,13,09,24,15.30
2013,07,13,09,25,15.20
2013,07,13,09,26,15.20
2013,07,13,09,27,15.20
2013,07,13,09,28,15.20
2013,07,13,09,29,15.10
2013,07,13,09,30,15.10
2013,07,13,09,31,15.20
2013,07,13,09,32,15.20
2013,07,13,09,33,15.30
2013,07,13,09,34,15.40
2013,07,13,09,35,15.40
2013,07,13,09,36,15.50
2013,07,13,09,37,15.60
2013,07,13,09,38,15.70
2013,07,13,09,39,15.80
2013,07,13,09,40,15.90
2013,07,13,09,41,15.90
2013,07,13,09,42,15.90
2013,07,13,09,43,15.90
2013,07,13,09,44,15.90
2013,07,13,09,45,15.80
2013,07,13,09,46,15.90
2013,07,13,09,47,15.90
2013,07,13,09,48,15.90
2013,07,13,09,49,15.90
2013,07,13,09,50,16.00
2013,07,13,09,51,16.10
2013,07,13,09,52,16.20
2013,07,13,09,53,16.30
2013,07,13,09,54,16.40
2013,07,13,09,55,16.50
2013,07,13,09,56,16.50
2013,07,13,09,57,16.60
2013,07,13,09,58,16.60
2013,07,13,09,59,16.60
2013,07,13,10,00,16.60
2013,07,13,10,01,16.70
2013,07,13,10,02,16.70
2013,07,13,10,03,16.80
2013,07,13,10,04,16.80
2013,07,13,10,05,16.90
2013,07,13,10,06,16.90
2013,07,13,10,07,17.00
2013,07,13,10,08,17.00
2013,07,13,10,09,17.00
2013,07,13,10,10,17.00
2013,07,13,10,11,17.00
2013,07,13,10,12,17.00
2013,07,13,10,13,16.90
2013,07,13,10,14,17.00
2013,07,13,10,15,17.00
2013,07,13,10,16,17.10
2013,07,13,10,17,17.20
2013,07,13,10,18,17.20
2013,07,13,10,19,17.10
2013,07,13,10,20,17.10
2013,07,13,10,21,17.10
2013,07,13,10,22,17.10
2013,07,13,10,23,17.20
2013,07,13,10,24,17.20
2013,07,13,10,25,17.30
2013,07,13,10,26,17.40
2013,07,13,10,27,17.40
2013,07,13,10,28,17.40
2013,07,13,10,29,17.50
2013,07,13,10,30,17.50
2013,07,13,10,31,17.60
2013,07,13,10,32,17.70
2013,07,13,10,33,17.80
2013,07,13,10,34,17.80
2013,07,13,10,35,17.90
2013,07,13,10,36,18.00
2013,07,13,10,37,18.00
2013,07,13,10,38,18.10
2013,07,13,10,39,18.20
2013,07,13,10,40,18.30
2013,07,13,10,41,18.40
2013,07,13,10,42,18.50
2013,07,13,10,43,18.50
2013,07,13,10,44,18.60
2013,07,13,10,45,18.60
2013,07,13,10,46,18.70
2013,07,13,10,47,18.80
2013,07,13,10,48,18.80
2013,07,13,10,49,18.80
2013,07,13,10,50,18.90
2013,07,13,10,51,18.90
2013,07,13,10,52,19.00
2013,07,13,10,53,19.10
2013,07,13,10,54,19.20
2013,07,13,10,55,19.30
2013,07,13,10,56,19.40
2013,07,13,10,57,19.40
2013,07,13,10,58,19.40
2013,07,13,10,59,19.40
2013,07,13,11,00,19.40
2013,07,13,11,01,19.40
2013,07,13,11,02,19.40
2013,07,13,11,03,19.50
2013,07,13,11,04,19.50
2013,07,13,11,05,19.60
2013,07,13,11,06,19.70
2013,07,13,11,07,19.70
2013,07,13,11,08,19.70
2013,07,13,11,09,19.60
2013,07,13,11,10,19.60
2013,07,13,11,11,19.50
2013,07,13,11,12,19.50
2013,07,13,11,13,19.40
2013,07,13,11,14,19.40
2013,07,13,11,15,19.40
2013,07,13,11,16,19.40
2013,07,13,11,17,19.40
2013,07,13,11,18,19.40
2013,07,13,11,19,19.40
2013,07,13,11,20,19.30
2013,07,13,11,21,19.10
2013,07,13,11,22,19.00
2013,07,13,11,23,18.90
2013,07,13,11,24,18.90
2013,07,13,11,25,18.80
2013,07,13,11,26,18.80
2013,07,13,11,27,18.80
2013,07,13,11,28,18.80
2013,07,13,11,29,18.90
2013,07,13,11,30,18.80
2013,07,13,11,31,18.90
2013,07,13,11,32,18.90
2013,07,13,11,33,19.00
2013,07,13,11,34,19.00
2013,07,13,11,35,19.10
2013,07,13,11,36,19.10
2013,07,13,11,37,19.20
2013,07,13,11,38,19.30
2013,07,13,11,39,19.40
2013,07,13,11,40,19.50
2013,07,13,11,41,19.60
2013,07,13,11,42,19.70
2013,07,13,11,43,19.80
2013,07,13,11,44,19.80
2013,07,13,11,45,19.90
2013,07,13,11,46,19.90
2013,07,13,11,47,19.90
2013,07,13,11,48,19.90
2013,07,13,11,49,19.90
2013,07,13,11,50,19.80
2013,07,13,11,51,19.80
2013,07,13,11,52,19.80
2013,07,13,11,53,19.80
2013,07,13,11,54,19.70
2013,07,13,11,55,19.80
2013,07,13,11,56,19.80
2013,07,13,11,57,19.80
2013,07,13,11,58,19.80
2013,07,13,11,59,19.90
2013,07,13,12,00,20.00
2013,07,13,12,01,20.10
2013,07,13,12,02,20.10
2013,07,13,12,03,20.20
2013,07,13,12,04,20.20
2013,07,13,12,05,20.30
2013,07,13,12,06,20.30
2013,07,13,12,07,20.30
2013,07,13,12,08,20.40
2013,07,13,12,09,20.50
2013,07,13,12,10,20.60
2013,07,13,12,11,20.70
2013,07,13,12,12,20.80
2013,07,13,12,13,20.90
2013,07,13,12,14,20.90
2013,07,13,12,15,20.90
2013,07,13,12,16,21.00
2013,07,13,12,17,21.10
2013,07,13,12,18,21.10
2013,07,13,12,19,21.20
2013,07,13,12,20,21.30
2013,07,13,12,21,21.30
2013,07,13,12,22,21.20
2013,07,13,12,23,21.10
2013,07,13,12,24,21.00
2013,07,13,12,25,20.80
2013,07,13,12,26,20.70
2013,07,13,12,27,20.70
2013,07,13,12,28,20.70
2013,07,13,12,29,20.70
2013,07,13,12,30,20.70
2013,07,13,12,31,20.70
2013,07,13,12,32,20.80
2013,07,13,12,33,20.80
2013,07,13,12,34,20.90
2013,07,13,12,35,20.90
2013,07,13,12,36,21.00
2013,07,13,12,37,21.10
2013,07,13,12,38,21.20
2013,07,13,12,39,21.20
2013,07,13,12,40,21.30
2013,07,13,12,41,21.20
2013,07,13,12,42,21.10
2013,07,13,12,43,21.10
2013,07,13,12,44,21.10
2013,07,13,12,45,21.10
2013,07,13,12,46,21.10
2013,07,13,12,47,21.10
2013,07,13,12,48,21.10
2013,07,13,12,49,21.10
2013,07,13,12,50,21.20
2013,07,13,12,51,21.30
2013,07,13,12,52,21.40
2013,07,13,12,53,21.50
2013,07,13,12,54,21.60
2013,07,13,12,55,21.70
2013,07,13,12,56,21.80
2013,07,13,12,57,21.80
2013,07,13,12,58,21.80
2013,07,13,12,59,21.80
2013,07,13,13,00,21.80
2013,07,13,13,01,21.80
2013,07,13,13,02,21.70
2013,07,13,13,03,21.60
2013,07,13,13,04,21.60
2013,07,13,13,05,21.60
2013,07,13,13,06,21.70
2013,07,13,13,07,21.60
2013,07,13,13,08,21.50
2013,07,13,13,09,21.50
2013,07,13,13,10,21.40
2013,07,13,13,11,21.50
2013,07,13,13,12,21.50
2013,07,13,13,13,21.60
2013,07,13,13,14,21.60
2013,07,13,13,15,21.60
2013,07,13,13,16,21.60
2013,07,13,13,17,21.70
2013,07,13,13,18,21.80
2013,07,13,13,19,21.80
2013,07,13,13,20,21.90
2013,07,13,13,21,22.00
2013,07,13,13,22,22.10
2013,07,13,13,23,22.20
2013,07,13,13,24,22.20
2013,07,13,13,25,22.20
2013,07,13,13,26,22.20
2013,07,13,13,27,22.20
2013,07,13,13,28,22.20
2013,07,13,13,29,22.20
2013,07,13,13,30,22.20
2013,07,13,13,31,22.20
2013,07,13,13,32,22.20
2013,07,13,13,33,22.30
2013,07,13,13,34,22.40
2013,07,13,13,35,22.50
2013,07,13,13,36,22.60
2013,07,13,13,37,22.70
2013,07,13,13,38,22.70
2013,07,13,13,39,22.60
2013,07,13,13,40,22.50
2013,07,13,13,41,22.40
2013,07,13,13,42,22.40
2013,07,13,13,43,22.40
2013,07,13,13,44,22.40
2013,07,13,13,45,22.30
2013,07,13,13,46,22.40
2013,07,13,13,47,22.50
2013,07,13,13,48,22.50
2013,07,13,13,49,22.50
2013,07,13,13,50,22.50
2013,07,13,13,51,22.60
2013,07,13,13,52,22.60
2013,07,13,13,53,22.70
2013,07,13,13,54,22.80
2013,07,13,13,55,23.00
2013,07,13,13,56,23.10
2013,07,13,13,57,23.20
2013,07,13,13,58,23.30
2013,07,13,13,59,23.30
2013,07,13,14,00,23.30
2013,07,13,14,01,23.30
2013,07,13,14,02,23.20
2013,07,13,14,03,23.20
2013,07,13,14,04,23.10
2013,07,13,14,05,22.90
2013,07,13,14,06,22.80
2013,07,13,14,07,22.70
2013,07,13,14,08,22.70
2013,07,13,14,09,22.70
2013,07,13,14,10,22.70
2013,07,13,14,11,22.80
2013,07,13,14,12,22.80
2013,07,13,14,13,22.80
2013,07,13,14,14,22.80
2013,07,13,14,15,22.80
2013,07,13,14,16,22.80
2013,07,13,14,17,22.70
2013,07,13,14,18,22.70
2013,07,13,14,19,22.60
2013,07,13,14,20,22.60
2013,07,13,14,21,22.60
2013,07,13,14,22,22.50
2013,07,13,14,23,22.40
2013,07,13,14,24,22.40
2013,07,13,14,25,22.40
2013,07,13,14,26,22.50
2013,07,13,14,27,22.60
2013,07,13,14,28,22.60
2013,07,13,14,29,22.50
2013,07,13,14,30,22.50
2013,07,13,14,31,22.60
2013,07,13,14,32,22.60
2013,07,13,14,33,22.80
2013,07,13,14,34,22.90
2013,07,13,14,35,23.00
2013,07,13,14,36,23.20
2013,07,13,14,37,23.20
2013,07,13,14,38,23.30
2013,07,13,14,39,23.20
2013,07,13,14,40,23.20
2013,07,13,14,41,23.20
2013,07,13,14,42,23.20
2013,07,13,14,43,23.30
2013,07,13,14,44,23.40
2013,07,13,14,45,23.50
2013,07,13,14,46,23.70
2013,07,13,14,47,23.80
2013,07,13,14,48,24.00
2013,07,13,14,49,24.10
2013,07,13,14,50,24.20
2013,07,13,14,51,24.30
2013,07,13,14,52,24.40
2013,07,13,14,53,24.40
2013,07,13,14,54,24.40
2013,07,13,14,55,24.40
2013,07,13,14,56,24.30
2013,07,13,14,57,24.20
2013,07,13,14,58,24.10
2013,07,13,14,59,24.00
2013,07,13,15,00,24.00
2013,07,13,15,01,23.90
2013,07,13,15,02,23.90
2013,07,13,15,03,23.90
2013,07,13,15,04,23.80
2013,07,13,15,05,23.70
2013,07,13,15,06,23.60
2013,07,13,15,07,23.50
2013,07,13,15,08,23.40
2013,07,13,15,09,23.30
2013,07,13,15,10,23.30
2013,07,13,15,11,23.30
2013,07,13,15,12,23.30
2013,07,13,15,13,23.40
2013,07,13,15,14,23.40
2013,07,13,15,15,23.40
2013,07,13,15,16,23.40
2013,07,13,15,17,23.40
2013,07,13,15,18,23.50
2013,07,13,15,19,23.40
2013,07,13,15,20,23.40
2013,07,13,15,21,23.50
2013,07,13,15,22,23.50
2013,07,13,15,23,23.60
2013,07,13,15,24,23.70
2013,07,13,15,25,23.70
2013,07,13,15,26,23.70
2013,07,13,15,27,23.70
2013,07,13,15,28,23.70
2013,07,13,15,29,23.70
2013,07,13,15,30,23.70
2013,07,13,15,31,23.70
2013,07,13,15,32,23.60
2013,07,13,15,33,23.60
2013,07,13,15,34,23.60
2013,07,13,15,35,23.50
2013,07,13,15,36,23.40
2013,07,13,15,37,23.40
2013,07,13,15,38,23.40
2013,07,13,15,39,23.40
2013,07,13,15,40,23.40
2013,07,13,15,41,23.50
2013,07,13,15,42,23.50
2013,07,13,15,43,23.50
2013,07,13,15,44,23.50
2013,07,13,15,45,23.50
2013,07,13,15,46,23.50
2013,07,13,15,47,23.60
2013,07,13,15,48,23.60
2013,07,13,15,49,23.70
2013,07,13,15,50,23.70
2013,07,13,15,51,23.70
2013,07,13,15,52,23.70
2013,07,13,15,53,23.70
2013,07,13,15,54,23.70
2013,07,13,15,55,23.70
2013,07,13,15,56,23.70
2013,07,13,15,57,23.70
2013,07,13,15,58,23.70
2013,07,13,15,59,23.80
2013,07,13,16,00,23.80
2013,07,13,16,01,23.80
2013,07,13,16,02,23.70
2013,07,13,16,03,23.80
2013,07,13,16,04,23.80
2013,07,13,16,05,23.70
2013,07,13,16,06,23.70
2013,07,13,16,07,23.60
2013,07,13,16,08,23.60
2013,07,13,16,09,23.60
2013,07,13,16,10,23.60
2013,07,13,16,11,23.60
2013,07,13,16,12,23.60
2013,07,13,16,13,23.50
2013,07,13,16,14,23.50
2013,07,13,16,15,23.50
2013,07,13,16,16,23.50
2013,07,13,16,17,23.50
2013,07,13,16,18,23.60
2013,07,13,16,19,23.60
2013,07,13,16,20,23.50
2013,07,13,16,21,23.50
2013,07,13,16,22,23.50
2013,07,13,16,23,23.50
2013,07,13,16,24,23.50
2013,07,13,16,25,23.50
2013,07,13,16,26,23.50
2013,07,13,16,27,23.50
2013,07,13,16,28,23.50
2013,07,13,16,29,23.50
2013,07,13,16,30,23.40
2013,07,13,16,31,23.40
2013,07,13,16,32,23.40
2013,07,13,16,33,23.40
2013,07,13,16,34,23.40
2013,07,13,16,35,23.40
2013,07,13,16,36,23.40
2013,07,13,16,37,23.40
2013,07,13,16,38,23.40
2013,07,13,16,39,23.40
2013,07,13,16,40,23.40
2013,07,13,16,41,23.40
2013,07,13,16,42,23.40
2013,07,13,16,43,23.40
2013,07,13,16,44,23.40
2013,07,13,16,45,23.40
2013,07,13,16,46,23.40
2013,07,13,16,47,23.30
2013,07,13,16,48,23.30
2013,07,13,16,49,23.30
2013,07,13,16,50,23.30
2013,07,13,16,51,23.40
2013,07,13,16,52,23.40
2013,07,13,16,53,23.40
2013,07,13,16,54,23.40
2013,07,13,16,55,23.40
2013,07,13,16,56,23.40
2013,07,13,16,57,23.40
2013,07,13,16,58,23.40
2013,07,13,16,59,23.40
2013,07,13,17,00,23.40
2013,07,13,17,01,23.40
2013,07,13,17,02,23.40
2013,07,13,17,03,23.40
2013,07,13,17,04,23.40
2013,07,13,17,05,23.40
2013,07,13,17,06,23.40
2013,07,13,17,07,23.30
2013,07,13,17,08,23.30
2013,07,13,17,09,23.30
2013,07,13,17,10,23.30
2013,07,13,17,11,23.30
2013,07,13,17,12,23.30
2013,07,13,17,13,23.30
2013,07,13,17,14,23.30
2013,07,13,17,15,23.30
2013,07,13,17,16,23.30
2013,07,13,17,17,23.30
2013,07,13,17,18,23.30
2013,07,13,17,19,23.20
2013,07,13,17,20,23.20
2013,07,13,17,21,23.10
2013,07,13,17,22,23.10
2013,07,13,17,23,23.10
2013,07,13,17,24,23.10
2013,07,13,17,25,23.10
2013,07,13,17,26,23.00
2013,07,13,17,27,23.00
2013,07,13,17,28,23.00
2013,07,13,17,29,22.90
2013,07,13,17,30,22.90
2013,07,13,17,31,22.90
2013,07,13,17,32,22.90
2013,07,13,17,33,22.90